GW3595 Weather Reports


Display with metric or nautical units.
time (UTC)temp
F
wind
direction
speed
MPH
gust
MPH
rain 1hr
in
rain 24hr
in
rain mn
in
humidity
%
barometer
mb
20260503004705 49 0 2.0 4.0 0.00 0.00 0.00 73 1019.1
20260503004205 49 0 2.0 4.0 0.00 0.00 0.00 73 1019.2
20260503003704 49 0 2.0 4.0 0.00 0.00 0.00 73 1019.2
20260503003205 49 0 2.0 4.0 0.00 0.00 0.00 73 1019.2
20260503002704 49 0 2.0 3.0 0.00 0.00 0.00 73 1019.2
20260503002205 49 0 1.0 4.0 0.00 0.00 0.00 73 1019.2
20260503001704 49 0 2.0 4.0 0.00 0.00 0.00 72 1019.3
20260503001205 49 0 2.0 4.0 0.00 0.00 0.00 72 1019.3
20260503000705 49 0 2.0 4.0 0.00 0.00 0.00 72 1019.4
20260503000205 49 0 2.0 3.0 0.00 0.00 0.00 73 1019.4
20260502235705 49 0 1.0 3.0 0.00 0.00 0.00 74 1019.4
20260502235204 48 0 1.0 3.0 0.00 0.00 0.00 73 1019.4
20260502234705 49 0 2.0 3.0 0.00 0.00 0.00 72 1019.5
20260502234204 49 0 2.0 3.0 0.00 0.00 0.00 72 1019.5
20260502233704 49 0 2.0 3.0 0.00 0.00 0.00 72 1019.6
20260502233205 49 0 2.0 3.0 0.00 0.00 0.00 72 1019.6
20260502232704 49 0 2.0 3.0 0.00 0.00 0.00 72 1019.6
20260502231704 49 0 1.0 3.0 0.00 0.00 0.00 71 1019.7
20260502231205 50 0 1.0 3.0 0.00 0.00 0.00 71 1019.8
20260502230205 50 0 1.0 2.0 0.00 0.00 0.00 70 1019.7
20260502225705 50 0 1.0 2.0 0.00 0.00 0.00 70 1019.8
20260502225205 50 0 1.0 3.0 0.00 0.00 0.00 70 1019.8
20260502224705 50 0 1.0 3.0 0.00 0.00 0.00 70 1019.8
20260502224205 50 0 1.0 3.0 0.00 0.00 0.00 70 1019.9
20260502223705 50 0 2.0 3.0 0.00 0.00 0.00 70 1019.9
20260502223204 51 0 1.0 3.0 0.00 0.00 0.00 69 1019.9
20260502222205 51 0 1.0 2.0 0.00 0.00 0.00 69 1020.0
20260502221705 51 0 0.0 2.0 0.00 0.00 0.00 69 1020.0
20260502221204 51 0 0.0 1.0 0.00 0.00 0.00 69 1020.1
20260502220705 51 0 0.0 1.0 0.00 0.00 0.00 68 1020.0
20260502220204 51 0 0.0 1.0 0.00 0.00 0.00 68 1020.0
20260502215705 52 0 0.0 1.0 0.00 0.00 0.00 67 1020.0
20260502213704 53 0 0.0 2.0 0.00 0.00 0.00 66 1019.9
20260502213205 53 0 0.0 2.0 0.00 0.00 0.00 66 1019.9
20260502212704 53 0 0.0 2.0 0.00 0.00 0.00 65 1019.9
20260502212205 53 0 0.0 2.0 0.00 0.00 0.00 65 1019.9
20260502211704 53 0 0.0 2.0 0.00 0.00 0.00 65 1019.9
20260502211205 53 0 0.0 2.0 0.00 0.00 0.00 65 1019.9
20260502210705 54 0 1.0 2.0 0.00 0.00 0.00 64 1019.9
20260502210204 54 0 0.0 1.0 0.00 0.00 0.00 64 1019.9
20260502205705 53 0 0.0 3.0 0.00 0.00 0.00 65 1019.9
20260502205204 54 0 0.0 3.0 0.00 0.00 0.00 65 1019.9
20260502204205 55 0 0.0 3.0 0.00 0.00 0.00 63 1020.0
20260502203704 55 0 0.0 3.0 0.00 0.00 0.00 62 1020.0
20260502202704 55 0 1.0 3.0 0.00 0.00 0.00 61 1020.0
20260502202205 55 0 0.0 3.0 0.00 0.00 0.00 61 1020.0
20260502201704 56 0 0.0 2.0 0.00 0.00 0.00 61 1019.9
20260502200704 57 0 0.0 3.0 0.00 0.00 0.00 59 1020.0
20260502200204 57 0 1.0 3.0 0.00 0.00 0.00 59 1019.9
20260502195204 58 0 1.0 2.0 0.00 0.00 0.00 57 1019.9
20260502194704 58 0 0.0 2.0 0.00 0.00 0.00 57 1019.8
20260502194205 58 0 1.0 2.0 0.00 0.00 0.00 58 1019.8
20260502193704 57 0 1.0 2.0 0.00 0.00 0.00 59 1019.8
20260502193205 58 0 1.0 5.0 0.00 0.00 0.00 59 1019.7
20260502192704 58 0 1.0 5.0 0.00 0.00 0.00 57 1019.7
20260502192205 59 0 1.0 5.0 0.00 0.00 0.00 57 1019.7
20260502191704 59 0 1.0 5.0 0.00 0.00 0.00 55 1019.6
20260502191205 59 0 0.0 2.0 0.00 0.00 0.00 56 1019.5
20260502190705 59 0 0.0 2.0 0.00 0.00 0.00 55 1019.5
20260502190204 60 0 1.0 2.0 0.00 0.00 0.00 54 1019.4
20260502185705 60 0 0.0 1.0 0.00 0.00 0.00 54 1019.4
20260502185204 60 0 0.0 1.0 0.00 0.00 0.00 53 1019.3
20260502184704 60 0 0.0 0.0 0.00 0.00 0.00 53 1019.3
20260502184205 61 0 0.0 2.0 0.00 0.00 0.00 52 1019.2
20260502183704 61 0 0.0 2.0 0.00 0.00 0.00 51 1019.1
20260502183205 62 0 0.0 2.0 0.00 0.00 0.00 50 1019.1
20260502182704 62 0 0.0 2.0 0.00 0.00 0.00 49 1019.0
20260502182205 63 0 0.0 1.0 0.00 0.00 0.00 48 1019.0
20260502181704 63 0 0.0 1.0 0.00 0.00 0.00 48 1018.9
20260502181205 64 0 0.0 2.0 0.00 0.00 0.00 47 1018.8
20260502180705 65 0 1.0 2.0 0.00 0.00 0.00 46 1018.7
20260502180204 66 0 1.0 2.0 0.00 0.00 0.00 43 1018.7
20260502164204 74 108 2.0 7.0 0.00 0.00 0.00 32 1018.6
20260502163705 74 238 3.0 7.0 0.00 0.00 0.00 32 1018.6
20260502162704 74 210 3.0 7.0 0.00 0.00 0.00 31 1018.7
20260502162205 74 203 3.0 8.0 0.00 0.00 0.00 32 1018.7
20260502161205 74 189 4.0 8.0 0.00 0.00 0.00 32 1018.8
20260502160705 74 211 4.0 9.0 0.00 0.00 0.00 31 1018.9
20260502160205 74 182 4.0 9.0 0.00 0.00 0.00 31 1018.9
20260502152205 76 248 3.0 11.0 0.00 0.00 0.00 31 1019.2
20260502151204 73 136 4.0 9.0 0.00 0.00 0.00 32 1019.3
20260502150704 74 110 4.0 9.0 0.00 0.00 0.00 31 1019.4
20260502150205 75 202 4.0 10.0 0.00 0.00 0.00 32 1019.4
20260502130204 76 155 3.0 8.0 0.00 0.00 0.00 33 1020.5
20260502123704 74 105 4.0 9.0 0.00 0.00 0.00 33 1020.7
20260502123205 74 129 3.0 8.0 0.00 0.00 0.00 33 1020.8
20260502122704 74 203 3.0 6.0 0.00 0.00 0.00 31 1020.8
20260502122205 73 109 2.0 9.0 0.00 0.00 0.00 32 1020.9
20260502121704 74 205 2.0 9.0 0.00 0.00 0.00 33 1020.9
20260502121205 74 182 3.0 7.0 0.00 0.00 0.00 31 1021.0
20260502120205 73 190 3.0 9.0 0.00 0.00 0.00 32 1021.1
20260502115705 74 211 3.0 9.0 0.00 0.00 0.00 30 1021.1
20260502115205 75 203 2.0 7.0 0.00 0.00 0.00 31 1021.1
20260502114704 74 269 2.0 8.0 0.00 0.00 0.00 30 1021.2
20260502114204 73 160 3.0 8.0 0.00 0.00 0.00 30 1021.2
20260502113704 75 177 4.0 8.0 0.00 0.00 0.00 30 1021.3
20260502113204 76 167 2.0 8.0 0.00 0.00 0.00 30 1021.4
20260502112705 74 117 2.0 8.0 0.00 0.00 0.00 32 1021.5
20260502112205 73 174 3.0 8.0 0.00 0.00 0.00 28 1021.6
20260502111704 74 133 2.0 6.0 0.00 0.00 0.00 31 1021.6
20260502111206 73 222 2.0 7.0 0.00 0.00 0.00 30 1021.7
20260502105705 71 198 4.0 8.0 0.00 0.00 0.00 31 1021.9
20260502105204 73 138 4.0 8.0 0.00 0.00 0.00 29 1022.0
20260502104705 73 0 2.0 6.0 0.00 0.00 0.00 30 1022.0
20260502103705 73 291 3.0 8.0 0.00 0.00 0.00 28 1022.2
20260502103204 73 260 3.0 8.0 0.00 0.00 0.00 30 1022.2
20260502102705 72 202 3.0 9.0 0.00 0.00 0.00 30 1022.3
20260502102205 72 207 3.0 9.0 0.00 0.00 0.00 30 1022.3
20260502101704 72 264 3.0 11.0 0.00 0.00 0.00 29 1022.3
20260502100730 72 257 4.0 9.0 0.00 0.00 0.00 28 1022.5
20260502100205 72 153 3.0 6.0 0.00 0.00 0.00 30 1022.5
20260502091205 71 154 3.0 8.0 0.00 0.00 0.00 33 1023.4
20260502090705 71 171 4.0 7.0 0.00 0.00 0.00 32 1023.4
20260502090226 69 164 3.0 7.0 0.00 0.00 0.00 37 1023.5
20260502071222 59 0 5.0 9.0 0.00 0.00 0.00 54 1024.6
20260502070704 59 0 5.0 9.0 0.00 0.00 0.00 54 1024.6
20260502065704 57 0 5.0 9.0 0.00 0.00 0.00 56 1024.8
20260502065205 57 0 5.0 9.0 0.00 0.00 0.00 55 1024.8
20260502064704 57 0 4.0 9.0 0.00 0.00 0.00 57 1024.9
20260502064205 56 0 4.0 9.0 0.00 0.00 0.00 57 1024.9
20260502063704 56 0 5.0 10.0 0.00 0.00 0.00 58 1025.0
20260502061712 54 0 5.0 10.0 0.00 0.00 0.00 61 1025.1
20260502061205 53 0 5.0 10.0 0.00 0.00 0.00 61 1025.1
20260502060705 53 0 5.0 10.0 0.00 0.00 0.00 63 1025.2
20260502060204 52 0 5.0 10.0 0.00 0.00 0.00 63 1025.3
20260502055705 52 0 5.0 10.0 0.00 0.00 0.00 65 1025.3
20260502055204 51 0 4.0 10.0 0.00 0.00 0.00 65 1025.3
20260502054704 51 0 4.0 10.0 0.00 0.00 0.00 66 1025.5
20260502054204 51 0 4.0 10.0 0.00 0.00 0.00 66 1025.5
20260502053732 50 0 5.0 10.0 0.00 0.00 0.00 68 1025.5
20260502053205 49 0 5.0 7.0 0.00 0.00 0.00 69 1025.6
20260502052726 49 0 4.0 8.0 0.00 0.00 0.00 69 1025.5
20260502052205 48 0 4.0 9.0 0.00 0.00 0.00 70 1025.5
20260502051732 48 0 5.0 9.0 0.00 0.00 0.00 71 1025.5
20260502051205 47 0 5.0 11.0 0.00 0.00 0.00 72 1025.5
20260502050704 47 0 6.0 11.0 0.00 0.00 0.00 72 1025.5
20260502050205 47 0 5.0 11.0 0.00 0.00 0.00 73 1025.5
20260502045704 46 0 4.0 7.0 0.00 0.00 0.00 74 1025.5
20260502045205 46 0 4.0 7.0 0.00 0.00 0.00 74 1025.5
20260502044704 46 0 3.0 6.0 0.00 0.00 0.00 75 1025.5
20260502044205 45 0 3.0 7.0 0.00 0.00 0.00 76 1025.5
20260502043705 45 0 4.0 7.0 0.00 0.00 0.00 76 1025.5
20260502042705 44 0 4.0 6.0 0.00 0.00 0.00 77 1025.3
20260502041705 44 0 4.0 6.0 0.00 0.00 0.00 77 1025.3
20260502041204 44 0 3.0 6.0 0.00 0.00 0.00 77 1025.3
20260502040705 44 0 3.0 6.0 0.00 0.00 0.00 78 1025.3
20260502035705 44 0 4.0 5.0 0.00 0.00 0.00 78 1025.3
20260502034705 43 0 2.0 5.0 0.00 0.00 0.00 79 1025.2
20260502034205 43 0 2.0 5.0 0.00 0.00 0.00 78 1025.2
20260502033705 44 0 3.0 5.0 0.00 0.00 0.00 78 1025.2
20260502033205 43 0 3.0 5.0 0.00 0.00 0.00 79 1025.2
20260502032705 43 0 3.0 5.0 0.00 0.00 0.00 79 1025.2
20260502032205 43 0 2.0 4.0 0.00 0.00 0.00 79 1025.1
20260502031704 43 0 2.0 5.0 0.00 0.00 0.00 78 1025.2
20260502031205 44 0 3.0 5.0 0.00 0.00 0.00 78 1025.1
20260502025704 44 0 2.0 4.0 0.00 0.00 0.00 78 1025.2
20260502025205 43 0 3.0 4.0 0.00 0.00 0.00 78 1025.3
20260502024205 43 0 3.0 5.0 0.00 0.00 0.00 77 1025.2
20260502023205 44 0 3.0 5.0 0.00 0.00 0.00 78 1025.2
20260502022205 43 0 3.0 4.0 0.00 0.00 0.00 78 1025.3
20260502021205 44 0 3.0 5.0 0.00 0.00 0.00 78 1025.3
20260502020704 44 0 3.0 5.0 0.00 0.00 0.00 78 1025.3
20260502015705 44 0 3.0 4.0 0.00 0.00 0.00 77 1025.3
20260502015205 44 0 3.0 4.0 0.00 0.00 0.00 77 1025.5
20260502014704 44 0 3.0 5.0 0.00 0.00 0.00 76 1025.5
20260502014205 44 0 3.0 5.0 0.00 0.00 0.00 77 1025.5
20260502013704 44 0 3.0 5.0 0.00 0.00 0.00 77 1025.5
20260502012729 44 0 3.0 4.0 0.00 0.00 0.00 77 1025.5
20260502012205 44 0 2.0 4.0 0.00 0.00 0.00 77 1025.6
20260502011705 44 0 2.0 4.0 0.00 0.00 0.00 77 1025.6
20260502011205 44 0 2.0 4.0 0.00 0.00 0.00 77 1025.6
20260502010733 44 0 2.0 5.0 0.00 0.00 0.00 77 1025.5
20260502010205 44 0 2.0 5.0 0.00 0.00 0.00 75 1025.6
20260502005704 44 0 3.0 5.0 0.00 0.00 0.00 75 1025.6
20260502005205 44 0 3.0 4.0 0.00 0.00 0.00 75 1025.6